Tracking 17630 objects as of 24-May-2016
HD Live streaming from Space Station
objects crossing your sky now

METEOR 2-6 DEB

Track METEOR 2-6 DEB now!
10-day predictions


NORAD ID: 31406
Int'l Code: 1980-073H
Perigee: 828.1 km
Apogee: 828.1 km
Inclination: 81.2 °
Period: 101.3 minutes
Semi major axis: 7199 km
RCS: 0.0145 m2 (small)
Launch date: September 9, 1980
Source: Commonwealth of Independent States (former USSR) (CIS)
Launch site: PLESETSK MISSILE AND SPACE COMPLEX (PKMTR)

Note: This is SATELLITE DEBRIS
Your satellite tracking list
Your tracking list is empty





NASA's NSSDC Master Catalog

Two Line Element Set (TLE):
1 31406U 80073H   16144.07002585  .00000726  00000-0  32258-3 0  9993
2 31406  81.2207  57.4528 0054364  35.9838 324.4979 14.21312936492145
Source of the keplerian elements: AFSPC

N2YO: 517